{"data":{"norad_id":63504,"epoch":"2026-09-20T20:26:00.727584Z","epoch_age_seconds":125292,"freshness":"FRESH","line1":"1 63504U 25071M   26263.85139731  .00008308  00000+0  25676-3 0  9996","line2":"2 63504  53.1580 311.7453 0001280  90.3815 269.7335 15.34398169 82614","mean_motion":15.34398169,"eccentricity":0.000128,"inclination_deg":53.158,"raan_deg":311.7453,"arg_perigee_deg":90.3815,"mean_anomaly_deg":269.7335,"bstar":0.00025676,"rev_number":8261,"period_min":93.847870070027,"perigee_km":461.83305408304,"apogee_km":463.58431057772,"semimajor_km":6840.8456823304,"source":"CELESTRAK","updated_at":"2026-09-21T09:00:35.015459Z"}}